Location: Hilton Head Island
(32.2163°N, 80.7526°W)
Time: 15:42:58
(UTC-05:00)

Explorer 11/Cluster Stage 4 - Pass Details

Date: 20 February 2026
Orbit: 463 x 1176 km, 28.8° (Epoch: 6 March)

Event Time Altitude Azimuth Distance (km) Brightness Sun altitude
Rises 14:04:57 0° 262° (W) 2,853 9.9 42.2°
Reaches altitude 10° 14:07:28 10° 258° (WSW) 1,848 9.1 41.9°
Maximum altitude 14:11:32 51° 182° (S) 636 7.7 41.5°
Drops below altitude 10° 14:15:07 10° 105° (ESE) 1,634 8.2 41.1°
Sets 14:17:14 0° 99° (E) 2,482 9.0 40.8°
